OPTIMAL-1

导读

OPTIMAL-1(最优1号)是日本研发的技术试验纳卫星,于1998年11月20日发射升空,运行在近地轨道(LEO)。作为技术演示卫星,它承担立方体卫星平台、纳卫星推进系统、高光谱相机等新技术在轨验证任务,为日本小型卫星技术发展积累了关键经验,已完成任务再入大气层,推动了微小卫星技术的实际应用落地。

基本信息
目录编号:
55183
目录名称:
OPTIMAL-1
国际标识:
1998-067VA
轨道中心:
EARTH
卫星名称:
OPTIMAL-1
卫星全名:
--
卫星状态:
已陨落 最后检测时间 2023-08-22
发射日期:
1998-11-20 UTC
国别 :
日本 (JP)
星等 :
--
轨道信息
数据来源 国际轨道数据
星历时间: 2023-08-22T01:23:02+0800
轨道信息已过期1057天
半长轴: 6560.505km
偏心率: 0.0010608
轨道倾角: 51.635°
近地点辐角 323.494°
升交点赤经 331.056°
平近点角 36.536°
近地点: 175.41km
远地点: 189.33km
周期: 88.138分钟
每日圈数: 16.337927
详细信息
使用方式:
暂无